Regional Weather Roundup
Issued by NWS

Home | Current Version | Previous Version | Graphics & Text | Print | Product List | Glossary On
Versions: 1 2 3 4 5 6 7 8 9 10 11 12 13 14 15 16 17 18 19 20 21 22 23 24 25 26 27 28 29 30 31 32 33 34 35 36 37 38 39 40 41 42 43 44 45 46 47 48
000
ASUS43 KDMX 231107
RWRIA

WEATHER ROUNDUP FOR IOWA
NATIONAL WEATHER SERVICE DES MOINES IA
600 AM CDT TUE SEP 23 2014

NOTE: "FAIR" INDICATES FEW OR NO CLOUDS BELOW 12,000 FEET WITH NO
SIGNIFICANT WEATHER AND/OR OBSTRUCTIONS TO VISIBILITY.

* - THESE STATIONS ARE NOT NWS STATIONS...THUS NOT UNDER NWS
QUALITY CONTROL.  THEY ALSO DO NOT REPORT WEATHER SUCH
AS PRECIPITATION OR FOG.

IAZ001>003-012>014-020>022-031>034-043>046-231200-
   NORTHWEST IOWA

CITY           SKY/WX    TMP DP  RH WIND       PRES   REMARKS
CARROLL *        N/A     50  48  93 SE3       30.20S
CHEROKEE *     MOCLDY    54  52  94 CALM      30.17S
DENISON *      PTCLDY    57  54  88 SE8       30.17R
LE MARS *        N/A     57  52  82 SE8       30.15S
ORANGE CITY *  PTCLDY    55  50  82 SE3       30.15S
SHELDON *      CLOUDY    54  50  87 SE7       30.15R
SIOUX CITY     CLOUDY    58  54  86 SE7       30.14R
SPENCER        PTCLDY    51  48  89 S7        30.17S
STORM LAKE *   CLEAR     52  52 100 S8        30.18S
$$

IAZ055>058-069>071-079>083-090>094-231200-
   SOUTHWEST IOWA

CITY           SKY/WX    TMP DP  RH WIND       PRES   REMARKS
ATLANTIC *     PTCLDY    57  52  82 S6        30.20R
AUDUBON *      CLEAR     50  45  81 CALM      30.21S
CLARINDA *     CLEAR     55  54  94 SE5       30.23R
COUNCIL BLFS * CLEAR     57  55  94 SE7       30.17S
CRESTON *      CLEAR     52  50  93 SE6       30.23R
HARLAN  *      PTCLDY    55  54  94 CALM      30.22S
LAMONI         CLOUDY    53  49  86 SE7       30.23S
RED OAK *      CLOUDY    57  54  88 S5        30.20S
SHENANDOAH *     N/A     57  54  88 SE6       30.20S
$$

IAZ047>049-059>061-072>074-084-231200-
   CENTRAL IOWA

CITY           SKY/WX    TMP DP  RH WIND       PRES   REMARKS
AMES           MOCLDY    49  47  93 CALM      30.23S
ANKENY *       CLEAR     50  48  93 CALM      30.23S
CHARITON *     CLOUDY    50  48  93 S6        30.24S
DES MOINES     MOCLDY    54  49  83 S8        30.23S
GRINNELL*      CLEAR     50  46  87 S5        30.26R
KNOXVILLE *    CLOUDY    52  48  87 S6        30.23S
MARSHALLTOWN   PTCLDY    46  44  93 E5        30.24R
PELLA *        PTCLDY    50  48  93 SE5       30.26S
PERRY *          N/A     50  50 100 SE5       30.21F
$$

IAZ004>006-015-016-023>025-035-036-231200-
   NORTH CENTRAL IOWA

CITY           SKY/WX    TMP DP  RH WIND       PRES   REMARKS
ALGONA *       CLEAR     52  50  93 S6        30.21R
CLARION *        N/A     52  50  93 S6        30.22S
ESTHERVILLE    MOCLDY    44  44 100 S7        30.18S
FORT DODGE *   MOCLDY    54  48  82 S5        30.22S
MASON CITY     PTCLDY    45  45 100 S6        30.24S
FOREST CITY *  CLEAR     45  45 100 CALM      30.22S
IOWA FALLS *     N/A     46  45  93 CALM      30.25R
$$

IAZ007>011-017>019-026>030-037>042-050>054-066-231200-
   NORTHEAST IOWA

CITY           SKY/WX    TMP DP  RH WIND       PRES   REMARKS
CEDAR RAPIDS   CLEAR     44  44 100 SE5       30.27R
CHARLES CITY * CLEAR     48  46  93 SE6       30.25S
CLINTON *      CLEAR     43  39  87 E6        30.31S
DECORAH *      CLEAR     50  46  87 CALM      30.25R
DUBUQUE        CLEAR     46  43  89 S3        30.28S
MONTICELLO *   CLEAR     41  41 100 CALM      30.27S
OELWEIN *      CLEAR     46  45  93 SE6       30.27R
WATERLOO       CLEAR     43  42  97 E5        30.25R
$$

IAZ064-065-067-068-078-231200-
   EAST CENTRAL IOWA

CITY           SKY/WX    TMP DP  RH WIND       PRES   REMARKS
DAVENPORT      CLEAR     45  41  86 SE5       30.29R
IOWA CITY      CLEAR     45  44  97 CALM      30.29R
MT. PLEASANT * CLEAR     45  43  93 SE5       30.28R
MUSCATINE *    FOG       43  41  93 CALM      30.29R VSB 1/2
QUAD CITIES    CLEAR     43  41  93 CALM      30.29R
$$

IAZ062-063-075>077-085>089-095>099-231200-
   SOUTHEAST IOWA

CITY           SKY/WX    TMP DP  RH WIND       PRES   REMARKS
BURLINGTON     CLEAR     49  47  93 CALM      30.28R
FAIRFIELD *    CLEAR     48  45  87 CALM      30.27R
FORT MADISON * CLEAR     54  45  71 S5        30.29R
KEOKUK *       CLEAR     50  46  87 CALM      30.27R
OSKALOOSA *      N/A     46  45  93 S5        30.26S
CENTERVILLE *  CLEAR     48  48 100 S5        30.27R
OTTUMWA        CLEAR     50  46  86 S6        30.26R
WASHINGTON *   CLEAR     45  43  93 CALM      30.27R
$$

ABBREVIATIONS USED IN REMARKS
   TC - TEMPERATURES IN CELSIUS
  WCI - WIND CHILL INDEX
   HX - HEAT INDEX
  VSB - VISIBILITY
$$



USA.gov is the U.S. government's official web portal to all federal, state and local government web resources and services.